Location: Devargunta
(16.7631°N, 80.9077°E)
Time: 12:25:53
(UTC+00:00)

Cosmos 540 Rocket - Pass Details

Date: 01 December 2021
Orbit: 739 x 754 km, 74.1° (Epoch: 26 January)

Event Time Altitude Azimuth Distance (km) Brightness Sun altitude
Exits shadow 23:17:54 26° 347° (NNW) 1,433 4.6 -21.5°
Maximum altitude 23:20:50 90° 306° (NW) 752 3.4 -20.8°
Drops below altitude 10° 23:25:59 10° 167° (SSE) 2,264 6.3 -19.7°
Sets 23:28:20 0° 167° (SSE) 3,189 7.1 -19.1°
